This is the latest recevied weather packets stored in our database for station/object W3EJE-13. If no packets are shown the sender has not sent any weather packets the latest 10 day(s).
| Time | Temp. | Humidity | Pressure | Rain* | Wind** | Luminosity | Snow |
|---|---|---|---|---|---|---|---|
| 1777508284 | 13.33° C | 99% | 1009.3 hPa | 0 mm | - | 0 W/m² | - |
| 1777507981 | 13.33° C | 99% | 1009.1 hPa | 0 mm | - | 0 W/m² | - |
| 1777507677 | 13.33° C | 99% | 1009 hPa | 0 mm | - | 0 W/m² | - |
| 1777507374 | 13.33° C | 99% | 1008.9 hPa | 0 mm | - | 0 W/m² | - |
| 1777507072 | 13.33° C | 99% | 1008.9 hPa | 1.78 mm | - | 1 W/m² | - |
| 1777506770 | 13.33° C | 99% | 1008.8 hPa | 1.78 mm | - | 2 W/m² | - |
| 1777506465 | 13.33° C | 99% | 1008.9 hPa | 0 mm | - | 5 W/m² | - |
| 1777506161 | 13.33° C | 99% | 1008.9 hPa | 0 mm | - | 2 W/m² | - |
| 1777505857 | 13.33° C | 99% | 1008.6 hPa | 0 mm | - | 9 W/m² | - |
| 1777505554 | 13.89° C | 99% | 1008.5 hPa | 0 mm | - | 19 W/m² | - |
| 1777505251 | 13.89° C | 99% | 1008.2 hPa | 0 mm | - | 25 W/m² | - |
| 1777504947 | 13.89° C | 99% | 1008.2 hPa | 0 mm | - | 35 W/m² | - |
| 1777504644 | 13.33° C | 99% | 1008.5 hPa | 0 mm | - | 47 W/m² | - |
| 1777504341 | 13.33° C | 99% | 1008.2 hPa | 0 mm | - | 39 W/m² | - |
| 1777504035 | 13.33° C | 99% | 1008.3 hPa | 0 mm | - | 29 W/m² | - |
| 1777503733 | 13.33° C | 99% | 1008.3 hPa | 0 mm | - | 20 W/m² | - |
| 1777503429 | 13.33° C | 99% | 1008.5 hPa | 0 mm | - | 20 W/m² | - |
| 1777503125 | 13.33° C | 99% | 1008.9 hPa | 0 mm | - | 22 W/m² | - |
| 1777502823 | 13.33° C | 99% | 1008.8 hPa | 0 mm | - | 13 W/m² | - |
| 1777502520 | 13.33° C | 99% | 1008.6 hPa | 1.27 mm | - | 16 W/m² | - |
| 1777502217 | 13.33° C | 99% | 1008.4 hPa | 3.05 mm | - | 29 W/m² | - |
| 1777501914 | 13.89° C | 99% | 1008.5 hPa | 3.05 mm | - | 22 W/m² | - |
| 1777501611 | 13.89° C | 99% | 1008.4 hPa | 3.05 mm | - | 23 W/m² | - |
| 1777501308 | 13.89° C | 99% | 1008.4 hPa | 1.78 mm | - | 17 W/m² | - |
| 1777501006 | 13.89° C | 99% | 1008.2 hPa | 0 mm | - | 32 W/m² | - |
* Rain latest hour (hover to see other rain measurements)
** Current wind speed in m/s (hover to see current wind gust speed)